#timestamp,LO_Frequency,Hit 
1498442415.8,286047005.0,N
1498442435.6,286047007.2,N
1498442455.4,286047007.2,N
1498442475.3,286047004.8,N
1498442495.1,286047005.3,N
1498442496.0,286047005.3,N
1498442515.8,286047003.1,N
1498442535.7,286047005.3,N
1498442555.5,286047004.6,N
1498442575.3,286047005.7,N
1498442595.2,286047005.5,N
1498442615.9,286047002.9,N
1498442635.7,286047003.2,N
1498442655.5,286047005.7,N
1498442675.4,286047005.2,N
1498442695.2,286047003.1,N
1498442715.0,286047005.6,N
1498442715.9,286047005.6,N
1498442735.8,286047003.7,N
1498442755.6,286047005.5,N
1498442775.4,286047003.2,N
1498442795.3,286047005.6,N
1498442815.1,286047003.4,N
1498442835.8,286047003.3,N
1498442855.7,286047004.0,N
1498442875.5,286047003.6,N
1498442895.3,286047007.4,N
1498442915.2,286047005.3,N
1498442935.9,286047007.5,N
1498442955.7,286047005.9,N
1498442975.6,286047003.8,N
1498442995.4,286047003.1,N
1498443015.2,286047004.0,N
1498443035.0,286047003.8,N
1498443035.9,286047003.8,N
1498443055.8,286047003.4,N
1498443075.6,286047003.0,N
1498443095.4,286047005.8,N
1498443115.3,286047007.1,N
1498443135.1,286047004.9,N
1498443155.8,286047007.6,N
1498443175.7,286047007.6,N
1498443195.5,286047009.2,N
1498443215.3,286047006.5,N
1498443235.2,286047006.6,N
1498443255.9,286047006.6,N
1498443275.7,286047004.5,N
1498443295.5,286047005.4,N
1498443315.4,286047003.1,N
1498443335.2,286047007.4,N
1498443355.0,286047005.1,N
1498443355.9,286047005.1,N
1498443375.8,286047007.6,N
1498443395.6,286047007.5,N
1498443415.4,286047007.1,N
1498443435.3,286047007.1,N
1498443455.1,286047007.1,N
1498443456.0,286047007.1,N
1498443475.8,286047006.1,N
1498443495.7,286047009.1,N
1498443515.5,286047008.2,N
1498443535.3,286047008.5,N
1498443555.2,286047008.0,N
1498443575.9,286047009.2,N
1498443595.7,286047009.0,N
1498443615.5,286047012.4,N
1498443635.4,286047008.2,N
1498443655.2,286047009.4,N
1498443675.0,286047011.6,N
1498443675.9,286047011.6,N
1498443695.8,286047009.3,N
1498443715.6,286047011.9,N
1498443735.4,286047013.5,N
1498443755.3,286047012.5,N
1498443775.1,286047013.4,N
1498443795.8,286047013.8,N
1498443815.7,286047014.8,N
1498443835.5,286047014.7,N
1498443855.3,286047016.4,N
1498443875.2,286047018.2,N
1498443895.9,286047020.1,N
1498443915.7,286047019.3,N
1498443935.5,286047019.8,N
1498443955.4,286047019.8,N
1498443975.2,286047019.5,N
1498443995.0,286047017.6,N
1498443995.9,286047017.6,N
1498444015.8,286047017.4,N
1498444035.6,286047019.6,N
1498444055.4,286047021.9,N
1498444075.3,286047019.3,N
1498444095.1,286047017.7,N
1498444115.8,286047021.4,N
1498444135.7,286047023.1,N
1498444155.5,286047022.8,N
1498444175.3,286047023.1,N
1498444195.2,286047022.8,N
1498444215.9,286047018.9,N
1498444235.7,286047020.7,N
1498444255.5,286047022.9,N
1498444275.4,286047020.6,N
1498444295.2,286047021.0,N
1498444315.0,286047021.5,N
1498444315.9,286047021.5,N
1498444335.8,286047021.7,N
1498444355.6,286047019.5,N
1498444375.4,286047020.4,N
1498444395.3,286047019.5,N
1498444415.1,286047019.9,N
1498444416.0,286047019.9,N
1498444435.8,286047019.1,N
1498444455.7,286047021.8,N
1498444475.5,286047021.6,N
1498444495.3,286047022.0,N
1498444515.1,286047021.1,N
1498444535.9,286047021.0,N
1498444555.7,286047020.5,N
1498444575.5,286047021.0,N
1498444595.4,286047023.6,Y
1498444615.2,286047013.1,N
1498444635.0,286047014.8,N
1498444635.9,286047014.8,N
1498444655.8,286047016.8,N
1498444675.6,286047015.7,N
1498444695.4,286047016.8,N
1498444715.3,286047017.0,N
1498444735.1,286047016.0,N
1498444755.8,286047014.5,N
1498444775.7,286047018.3,N
1498444795.5,286047018.8,Y
1498444815.3,286047010.4,N
1498444835.2,286047008.3,N
1498444855.9,286047007.9,N
1498444875.7,286047008.4,N
1498444895.6,286047002.9,N
1498444915.4,286047003.1,N
1498444935.2,286047005.3,N
1498444955.1,286047006.7,N
1498444956.0,286047006.7,N
1498444975.8,286047008.2,N
1498444995.6,286047007.7,N
1498445015.5,286047010.8,N
1498445035.3,286047010.3,N
1498445055.1,286047010.2,N
1498445075.8,286047008.5,N
1498445095.7,286047009.1,N
1498445115.5,286047010.0,N
1498445135.3,286047009.7,N
1498445155.2,286047009.7,N
1498445175.9,286047008.1,N
1498445195.7,286047008.5,N
1498445215.6,286047010.0,N
1498445235.4,286047011.3,N
1498445255.2,286047013.6,N
1498445275.1,286047011.8,N
1498445276.0,286047011.8,N
1498445295.8,286047008.2,N
1498445315.6,286047010.7,N
1498445335.5,286047007.7,N
1498445355.3,286047010.4,N
1498445375.1,286047011.9,N
1498445395.8,286047013.6,N
1498445415.7,286047012.7,N
1498445435.5,286047014.0,N
1498445455.3,286047011.2,N
1498445475.2,286047012.2,N
1498445495.9,286047007.9,N
1498445515.7,286047007.9,N
1498445535.6,286047009.4,N
1498445555.4,286047012.4,N
1498445575.2,286047010.3,N
1498445595.1,286047007.4,N
1498445596.0,286047007.4,N
1498445615.8,286047006.2,N
1498445635.6,286047009.2,N
1498445655.5,286047008.4,N
1498445675.3,286047008.3,N
1498445695.1,286047004.7,N
1498445715.8,286047003.8,N
1498445735.7,286047004.7,N
1498445755.5,286047005.1,N
1498445775.3,286047006.5,N
1498445795.2,286047008.5,N
1498445815.9,286047008.6,N
1498445835.7,286047005.1,N
1498445855.6,286047005.3,N
1498445875.4,286047005.2,N
1498445895.2,286047007.5,N
1498445915.0,286047008.6,N
1498445916.0,286047008.6,N
1498445935.8,286047006.6,N
1498445955.6,286047006.1,N
1498445975.4,286047006.2,N
1498445995.3,286047009.2,N
